Simultaneous Nadir Overpasses (SNOs) Predictions

Prediction of SNOs between AQUA and METOP-B Satellite Orbit:

Table of predicted SNOs for the next 14.0 days since TLE Epoch: 10/12/2024
Index Date (AQUA) Time (AQUA) Lat,Lon (AQUA) SZA (AQUA ) Date (METOP-B) Time (METOP-B) Lat,Lon (METOP-B) SZA (METOP-B ) Distance(km) Time Diff (sec)
1 10/12/2024 08:32:33 -76.32,-130.08 96.12 10/12/2024 08:31:29 -76.35,-130.06 96.09 3.40 64
2 10/12/2024 09:21:56 76.40, 37.32 83.97 10/12/2024 09:22:08 76.39, 37.43 83.97 2.78 12
3 10/14/2024 23:02:30 -76.34, 12.40 95.13 10/14/2024 23:01:37 -76.37, 12.45 95.10 3.23 53
4 10/14/2024 23:51:52 76.38, 179.93 84.93 10/14/2024 23:52:16 76.41, 179.92 84.96 3.00 24
5 10/17/2024 13:32:22 -76.35, 154.97 94.17 10/17/2024 13:31:46 -76.36, 154.84 94.16 3.65 36
6 10/17/2024 14:21:45 76.44, -37.69 85.94 10/17/2024 14:22:24 76.44, -37.54 85.94 4.04 39
7 10/20/2024 04:02:09 -76.38, -62.53 93.19 10/20/2024 04:01:53 -76.40, -62.57 93.18 1.93 16
8 10/20/2024 04:51:31 76.44, 104.94 86.88 10/20/2024 04:52:32 76.43, 104.88 86.87 2.12 61
9 10/22/2024 17:42:30 76.39, -87.60 87.73 10/22/2024 17:41:19 76.37, -87.54 87.71 2.95 71
10 10/22/2024 18:31:50 -76.40, 80.05 92.26 10/22/2024 18:32:00 -76.40, 79.90 92.25 4.09 10
11 10/22/2024 19:21:23 76.98,-114.39 88.34 10/22/2024 19:22:26 77.01,-110.45 88.41 98.63 63
12 10/25/2024 08:12:05 76.39, 55.06 88.64 10/25/2024 08:11:25 76.39, 54.96 88.63 2.70 40
13 10/25/2024 09:01:26 -76.44,-137.44 91.31 10/25/2024 09:02:05 -76.46,-137.43 91.28 2.32 39



Historial Predications of SNOs between AQUA and METOP-B
